Location: Tom
(33.0437°N, 96.9452°W)
Time: 18:09:43
(UTC-06:00)

N. Korean satellite - Pass Details

Date: 23 December 2018
Orbit: 458 x 509 km, 97.2° (Epoch: 22 January)

Event Time Altitude Azimuth Distance (km) Brightness Sun altitude
Rises 17:54:14 0° 163° (SSE) 2,462 10.2 -6.1°
Reaches altitude 10° 17:56:16 10° 161° (SSE) 1,594 9.3 -6.5°
Maximum altitude 17:59:40 69° 77° (ENE) 496 6.4 -7.2°
Drops below altitude 10° 18:03:06 10° 354° (N) 1,618 9.0 -7.8°
Sets 18:05:10 0° 352° (N) 2,504 10.0 -8.2°
